Location: Newark
(30.0333°N, 31.2167°E)
Time: 13:19:57
(UTC+00:00)

Tiros 1 despin weight - Pass Details

Date: 29 January 2020
Orbit: 594 x 642 km, 48.2° (Epoch: 27 February)

Event Time Altitude Azimuth Distance (km) Brightness Sun altitude
Rises 09:06:33 0° 292° (WNW) 2,852 ? 39.7°
Reaches altitude 10° 09:10:58 10° 332° (NNW) 1,964 ? 40.0°
Maximum altitude 09:11:50 11° 344° (NNW) 1,936 ? 40.1°
Drops below altitude 10° 09:12:43 10° 355° (N) 1,971 ? 40.1°
Sets 09:17:12 0° 36° (NE) 2,894 ? 40.4°
